sat.trackr.live / text

‹ back to catalog

UNKNOWN

NORAD 87991

UNKNOWN UNKNOWN UNKNOWN

§ Identity

Operator
Country
Launch date
Launch site
Launch vehicle
Mass (kg)
RCS (m²)

External: N2YO · Heavens-Above

§ Orbital elements

Epoch: 2026-05-23T14:16:05.755584Z

Period
116.58 min
Inclination
28.6215°
Eccentricity
0.0877016
Mean motion
12.35256043 rev/d
Perigee alt
833.5 km
Apogee alt
2,220.1 km
Semi-major
7,904.9 km
B*
-8.8999e-3
RAAN
299.8712°
Arg perigee
62.1939°
Mean anomaly
306.4699°
Rev number
54,302

§ Raw data

UNKNOWN1 87991U          26143.59451106 -.00004195  00000+0 -88999-2 0  99962 87991  28.6215 299.8712 0877016  62.1939 306.4699 12.35256043543029

JSON: /api/v1/satellites/87991 · /tle

For live sub-satellite position, see the globe view (requires WebGL).

§ Visibility from observer

Set your observer location to see the next 7 days of passes ≥ 10°. The values pass through the URL so the page stays shareable.

No JS? Fill the form by hand. The geolocation button needs JavaScript.